DW7423 Weather Reports


time (UTC)temp
F
wind
direction
speed
knots
gust
knots
rain 1hr
in
rain 24hr
in
rain mn
in
humidity
%
barometer
mb
20260510071550 72 163 0.0 0.0 0.00 0.00 0.00 56 1010.3
20260510070051 73 165 0.0 0.0 0.00 0.00 0.00 56 1010.2
20260510064547 73 165 0.0 0.0 0.00 0.00 0.00 58 1010.0
20260510063043 73 179 0.0 0.0 0.00 0.00 0.00 60 1010.1
20260510061541 74 179 0.0 0.0 0.00 0.00 0.00 62 1010.0
20260510060045 74 178 0.0 0.9 0.00 0.00 0.00 63 1009.9
20260510054538 74 186 0.0 0.0 0.00 0.00 0.00 63 1009.9
20260510053037 75 186 0.0 0.0 0.00 0.00 0.00 63 1009.9
20260510051534 75 186 0.0 0.0 0.00 0.00 0.00 63 1009.9
20260510050037 76 186 0.0 0.0 0.00 0.00 0.00 64 1009.8
20260510044526 76 186 0.0 0.0 0.00 0.00 0.00 64 1009.8
20260510043023 76 186 0.0 2.6 0.00 0.00 0.00 64 1009.7
20260510041522 77 188 0.0 0.0 0.00 0.00 0.00 64 1009.5
20260510040014 78 188 0.0 0.0 0.00 0.00 0.00 65 1009.4
20260510034509 78 188 0.0 0.0 0.00 0.00 0.00 66 1009.3
20260510033004 79 188 0.0 0.0 0.00 0.00 0.00 66 1009.2
20260510031605 79 188 0.0 0.0 0.00 0.00 0.00 65 1009.1
20260510030156 79 188 0.0 0.0 0.00 0.00 0.00 65 1008.8
20260510024551 80 188 0.9 5.2 0.00 0.00 0.00 65 1008.5
20260510023047 81 182 0.0 3.5 0.00 0.00 0.00 66 1008.4
20260510021635 81 182 0.9 3.5 0.00 0.00 0.00 66 1008.4
20260510020037 82 159 0.0 2.6 0.00 0.00 0.00 67 1008.2
20260510014546 82 190 0.0 3.5 0.00 0.00 0.00 67 1008.0
20260510013032 83 197 0.0 6.1 0.00 0.00 0.00 67 1007.9
20260510011525 83 126 0.0 0.9 0.00 0.00 0.00 66 1007.6
20260510010032 84 122 0.0 0.0 0.00 0.00 0.00 65 1007.6
20260510004522 84 120 0.0 1.7 0.00 0.00 0.00 65 1007.6
20260510003023 84 98 0.0 3.5 0.00 0.00 0.00 64 1007.4
20260510001519 85 179 0.0 3.5 0.00 0.00 0.00 63 1007.3
20260510000018 85 178 2.6 7.0 0.00 0.00 0.00 62 1007.2
20260509234521 86 185 0.9 4.3 0.00 0.00 0.00 61 1007.0
20260509233018 86 164 0.0 2.6 0.00 0.00 0.00 61 1007.0
20260509231518 86 169 1.7 3.5 0.00 0.00 0.00 60 1007.0
20260509230025 86 109 0.9 7.0 0.00 0.00 0.00 57 1007.0
20260509224517 87 115 0.0 3.5 0.00 0.00 0.00 53 1006.9
20260509223009 87 180 1.7 7.8 0.00 0.00 0.00 44 1006.9
20260509221505 87 110 0.9 3.5 0.00 0.00 0.00 47 1006.8
20260509220100 86 216 0.0 1.7 0.00 0.00 0.00 50 1006.5
20260509214556 85 171 0.9 3.5 0.00 0.00 0.00 52 1006.8
20260509213105 83 198 0.9 7.0 0.00 0.00 0.00 55 1006.9
20260509211549 81 169 3.5 9.6 0.00 0.00 0.00 55 1007.6
20260509210046 78 217 4.3 14.8 0.00 0.00 0.00 55 1007.7
20260509204539 78 185 9.6 19.1 0.00 0.00 0.00 58 1007.7
20260509203034 83 56 3.5 13.9 0.00 0.00 0.00 52 1007.9
20260509201528 89 103 4.3 12.2 0.00 0.00 0.00 58 1008.0
20260509200024 91 40 0.0 4.3 0.00 0.00 0.00 52 1007.9
20260509194531 90 265 0.9 3.5 0.00 0.00 0.00 53 1007.9
20260509193022 90 208 0.0 2.6 0.00 0.00 0.00 54 1008.0
20260509191514 90 240 0.0 3.5 0.00 0.00 0.00 56 1008.2
20260509190008 89 219 0.0 4.3 0.00 0.00 0.00 57 1008.4
20260509184502 89 214 0.0 3.5 0.00 0.00 0.00 58 1008.7
20260509183100 89 213 0.0 3.5 0.00 0.00 0.00 58 1009.1
20260509181601 88 178 0.0 3.5 0.00 0.00 0.00 62 1009.3
20260509180057 88 204 0.0 2.6 0.00 0.00 0.00 62 1009.4
20260509174547 87 184 0.0 4.3 0.00 0.00 0.00 64 1009.6
20260509173053 86 193 0.0 5.2 0.00 0.00 0.00 65 1010.0
20260509171539 85 194 0.0 3.5 0.00 0.00 0.00 65 1010.0
20260509170031 84 202 0.0 3.5 0.00 0.00 0.00 65 1010.2
20260509164526 83 97 0.0 3.5 0.00 0.00 0.00 64 1010.3
20260509163022 82 213 0.0 2.6 0.00 0.00 0.00 58 1010.3
20260509161519 81 213 0.0 3.5 0.00 0.00 0.00 40 1010.4
20260509160015 79 238 0.0 3.5 0.00 0.00 0.00 28 1010.3
20260509154509 78 169 0.0 4.3 0.00 0.00 0.00 1 1010.4
20260509153011 77 193 0.0 2.6 0.00 0.00 0.00 1 1010.4
20260509151600 76 199 0.0 4.3 0.00 0.00 0.00 1 1010.4
20260509150055 74 200 0.0 3.5 0.00 0.00 0.00 1 1010.6
20260509144552 74 171 0.0 4.3 0.00 0.00 0.00 1 1010.3
20260509143047 73 199 0.0 3.5 0.00 0.00 0.00 1 1010.2
20260509141544 73 181 0.0 5.2 0.00 0.00 0.00 1 1010.0
20260509140052 73 183 0.9 3.5 0.00 0.00 0.00 1 1010.1
20260509134534 73 45 0.0 0.0 0.00 0.00 0.00 1 1010.3
20260509133038 73 45 0.0 0.0 0.00 0.00 0.00 1 1010.4
20260509131530 73 45 0.0 0.0 0.00 0.00 0.00 1 1010.4
20260509130025 0 0.0 0.0 0.00 0.00 0.00 1010.0
20260509124521 0 0.0 0.0 0.00 0.00 0.00 1009.6
20260509123017 0 0.0 0.0 0.00 0.00 0.00 1009.8
20260509121512 0 0.0 0.0 0.00 0.00 0.00 1010.0
20260509120008 0 0.0 0.0 0.00 0.00 0.00 1010.1
20260509114503 0 0.0 0.0 0.00 0.00 0.00 1010.2
20260509113100 73 44 0.0 0.0 0.00 0.00 0.00 1 1010.6
20260509111558 73 44 0.0 2.6 0.00 0.00 0.00 1 1010.7
20260509110051 73 45 0.0 2.6 0.00 0.00 0.00 1 1011.0
20260509104548 73 46 0.0 4.3 0.00 0.00 0.00 1 1011.0
20260509103047 73 105 0.0 0.0 0.00 0.00 0.00 1 1010.9
20260509101539 73 107 0.0 0.0 0.00 0.00 0.00 1 1010.4
20260509100032 73 107 0.0 0.0 0.00 0.00 0.00 1 1009.9
20260509094527 73 107 0.0 0.0 0.00 0.00 0.00 1 1009.6
20260509093023 73 107 0.0 0.0 0.00 0.00 0.00 1 1009.8
20260509091519 73 107 0.0 0.0 0.00 0.00 0.00 1 1009.6
20260509090023 73 107 0.0 0.0 0.00 0.00 0.00 1 1009.5
20260509084510 73 107 0.0 0.0 0.00 0.00 0.00 1 1009.7
20260509083007 73 105 0.0 0.0 0.00 0.00 0.00 1 1009.8
20260509081502 73 155 0.0 0.0 0.00 0.00 0.00 1 1010.1
20260509080059 73 160 0.0 0.0 0.00 0.00 0.00 1 1009.8
20260509074609 73 165 0.0 0.0 0.00 0.00 0.00 1 1009.6
20260509073103 73 171 0.0 0.0 0.00 0.00 0.00 1 1009.9